Meriden, CT

3:26 AM EDT on July 24, 2017 (GMT -0400)
Meriden Markham Municipal

Weather History for KMMK - February, 2014

Change the Weather History Date:

Friday, February 14, 2014

  Actual Average (KOXC) Record (KOXC)
Temperature  
Mean Temperature 33 °F -  
Max Temperature 39 °F 35 °F 53 °F (2011)
Min Temperature 23 °F 20 °F -11 °F (2016)
Degree Days  
Heating Degree Days 32    
Moisture  
Dew Point 26 °F    
Average Humidity 78    
Maximum Humidity 93    
Minimum Humidity 50    
Precipitation  
Precipitation 0.00 in - - ()
Sea Level Pressure  
Sea Level Pressure 29.19 in    
Wind  
Wind Speed 10 mph (WNW)    
Max Wind Speed 18 mph    
Max Gust Speed 32 mph    
Visibility 7 miles    
Events Snow    
Averages and records for this station are not official NWS values.
T = Trace of Precipitation, MM = Missing Value Source: NWS Daily Summary

Daily Weather History Graph

Daily Weather History Graph

Search for Another Location

Airport or City:

Trip Planner

Search our weather history database for the weather conditions in past years. The results will help you decide how hot, cold, wet, or windy it might be!

Date:

Astronomy

Feb. 14, 2014 Rise Set
Actual Time 6:47 AM EST 5:23 PM EST
Civil Twilight 6:19 AM EST 5:52 PM EST
Nautical Twilight 5:46 AM EST 6:24 PM EST
Astronomical Twilight 5:14 AM EST 6:56 PM EST
Moon 5:25 PM EST (2/14) 6:12 AM EST (2/14)
Length of Visible Light 11h 32m
Length of Day
10h 35m
Full, 100% of the Moon is Illuminated
Feb 14
Full
Feb 14
Full
Feb 22
Last Quarter
Mar 1
New
Mar 8
First Quarter

Hourly Weather History & Observations

Time (EST) Temp. Windchill Dew Point Humidity Pressure Visibility Wind Dir Wind Speed Gust Speed Precip Events Conditions
12:28 AM 34.0 °F 26.6 °F 30.0 °F 85% 28.99 in 10.0 mi NE 9.2 mph 20.7 mph N/A   Overcast
12:53 AM 34.0 °F 28.8 °F 30.0 °F 85% 28.99 in 10.0 mi NNE 5.8 mph - N/A   Overcast
1:21 AM 33.1 °F 26.9 °F 30.0 °F 89% 28.95 in 10.0 mi North 6.9 mph - N/A   Overcast
1:53 AM 33.1 °F 25.5 °F 30.0 °F 89% 28.94 in 10.0 mi North 9.2 mph - N/A   Overcast
2:53 AM 33.1 °F 26.1 °F 30.9 °F 92% 28.94 in 3.0 mi NW 8.1 mph - N/A Snow Light Snow
3:03 AM 33.1 °F 24.9 °F 30.9 °F 92% 28.94 in 4.0 mi NW 10.4 mph - N/A Snow Light Snow
3:10 AM 33.1 °F 26.1 °F 30.9 °F 92% 28.94 in 4.0 mi NW 8.1 mph - N/A Snow Light Snow
3:12 AM 33.1 °F 26.1 °F 30.9 °F 92% 28.94 in 4.0 mi WNW 8.1 mph - N/A Snow Light Snow
3:18 AM 33.1 °F 26.1 °F 30.9 °F 92% 28.94 in 2.5 mi NW 8.1 mph - N/A Snow Light Snow
3:32 AM 33.1 °F 26.1 °F 30.9 °F 92% 28.94 in 2.0 mi NW 8.1 mph - N/A Snow Light Snow
3:53 AM 33.1 °F 23.4 °F 30.9 °F 92% 28.95 in 1.5 mi WNW 13.8 mph 19.6 mph N/A Snow Light Snow
4:02 AM 32.0 °F 21.6 °F 28.9 °F 88% 28.95 in 1.2 mi NW 15.0 mph 25.3 mph N/A Snow Light Snow
4:15 AM 32.0 °F 22.5 °F 28.9 °F 88% 28.95 in 2.0 mi WNW 12.7 mph - N/A Snow Light Snow
4:24 AM 32.0 °F 21.6 °F 28.9 °F 88% 28.96 in 1.8 mi NW 15.0 mph 23.0 mph N/A Snow Light Snow
4:31 AM 30.9 °F 19.8 °F 28.0 °F 89% 28.96 in 0.8 mi NW 16.1 mph 24.2 mph N/A Snow Light Snow
4:49 AM 30.2 °F 19.8 °F 28.4 °F 93% 28.97 in 1.0 mi NW 13.8 mph 20.7 mph N/A Snow Light Snow
4:53 AM 30.9 °F 20.2 °F 27.0 °F 85% 28.98 in 1.2 mi NW 15.0 mph 24.2 mph N/A Snow Light Snow
5:16 AM 30.0 °F 21.1 °F 27.0 °F 88% 28.99 in 0.8 mi NW 10.4 mph 23.0 mph N/A Snow Light Snow
5:23 AM 30.0 °F 18.7 °F 27.0 °F 88% 28.99 in 1.5 mi NW 16.1 mph 21.9 mph N/A Snow Light Snow
5:27 AM 30.9 °F 20.7 °F 27.0 °F 85% 28.99 in 3.0 mi NW 13.8 mph 21.9 mph N/A Snow Light Snow
5:53 AM 30.9 °F 21.2 °F 26.1 °F 82% 29.01 in 9.0 mi NW 12.7 mph - N/A   Mostly Cloudy
6:13 AM 30.9 °F 21.7 °F 26.1 °F 82% 29.03 in 10.0 mi WNW 11.5 mph 23.0 mph N/A   Mostly Cloudy
6:23 AM 30.9 °F 22.2 °F 25.0 °F 79% 29.03 in 10.0 mi WNW 10.4 mph 20.7 mph N/A   Mostly Cloudy
6:53 AM 30.9 °F 21.2 °F 25.0 °F 79% 29.08 in 10.0 mi WNW 12.7 mph 20.7 mph N/A   Overcast
7:45 AM 30.9 °F 19.1 °F 25.0 °F 79% 29.12 in 8.0 mi WNW 18.4 mph 26.5 mph 0.00 in Snow Light Snow
7:53 AM 30.9 °F 20.7 °F 25.0 °F 79% 29.13 in 9.0 mi WNW 13.8 mph 24.2 mph 0.00 in   Overcast
8:53 AM 30.9 °F 22.2 °F 25.0 °F 79% 29.18 in 10.0 mi WNW 10.4 mph 18.4 mph N/A   Overcast
9:53 AM 33.1 °F 25.5 °F 25.0 °F 72% 29.21 in 10.0 mi WNW 9.2 mph - N/A   Mostly Cloudy
10:53 AM 34.0 °F 26.6 °F 26.1 °F 73% 29.27 in 10.0 mi West 9.2 mph - N/A   Overcast
11:53 AM 35.1 °F 26.4 °F 26.1 °F 70% 29.31 in 10.0 mi WNW 12.7 mph 25.3 mph N/A   Overcast
12:01 PM 35.1 °F 26.4 °F 26.1 °F 70% 29.31 in 10.0 mi West 12.7 mph 20.7 mph N/A   Overcast
12:53 PM 36.0 °F 27.1 °F 26.1 °F 67% 29.35 in 10.0 mi WNW 13.8 mph 32.2 mph N/A   Mostly Cloudy
1:53 PM 37.9 °F 28.5 °F 23.0 °F 55% 29.39 in 10.0 mi West 17.3 mph 27.6 mph N/A   Clear
2:53 PM 39.0 °F 31.4 °F 24.1 °F 55% 29.42 in 10.0 mi West 12.7 mph 25.3 mph N/A   Scattered Clouds
3:53 PM 39.9 °F 31.4 °F 23.0 °F 51% 29.47 in 10.0 mi WNW 16.1 mph 28.8 mph N/A   Partly Cloudy
4:53 PM 39.0 °F 31.0 °F 21.9 °F 50% 29.53 in 10.0 mi West 13.8 mph 20.7 mph N/A   Clear
5:53 PM 37.0 °F - 21.0 °F 52% 29.58 in 10.0 mi Calm Calm - N/A   Clear
6:53 PM 36.0 °F 30.3 °F 21.0 °F 55% 29.62 in 10.0 mi SW 6.9 mph - N/A   Clear
7:53 PM 35.1 °F 28.6 °F 21.0 °F 57% 29.71 in 10.0 mi West 8.1 mph - N/A   Clear
8:53 PM 35.1 °F 28.6 °F 21.0 °F 57% 29.73 in 10.0 mi SSW 8.1 mph - N/A   Clear
9:53 PM 33.1 °F 30.0 °F 21.0 °F 61% 29.75 in 10.0 mi SSW 3.5 mph - N/A   Clear
10:53 PM 27.0 °F - 19.9 °F 75% 29.76 in 8.0 mi Calm Calm - N/A   Clear
11:53 PM 23.0 °F - 18.0 °F 81% 29.78 in 7.0 mi Calm Calm - N/A   Clear